Terminal Aerodrome Forecast
Issued by NWS Boston, MA

Home | Current Version | Previous Version | Text Only | Print | Product List | Glossary On
Versions: 1 2 3 4 5 6 7 8 9 10 11 12 13 14 15 16 17 18 19 20 21 22 23 24 25 26 27 28 29 30 31 32 33 34 35 36 37 38 39 40 41 42
000
FTUS41 KBOX 211736
TAFPVD
TAF
KPVD 211736Z 2118/2218 09005KT P6SM VCSH SCT015 BKN025
     FM220000 03005KT P6SM OVC015
     FM220600 02006KT 3SM BR OVC008
     FM221400 02010KT 3SM BR OVC008=

USA.gov is the U.S. government's official web portal to all federal, state and local government web resources and services.